"Pseudo-MPEC" for C11ERU5

Created 2025 Feb 5 14:31:06 UT using Find_Orb

Click here for an explanation of pseudo-MPECs

 
 Astrometry: 
     C11ERU5  C2025 01 18.51798910 37 19.348+46 33 03.31   ~24DV       VNEOCPV00
     C11ERU5  C2025 01 18.52360010 37 18.944+46 33 06.88   ~24DV       VNEOCPV00
     C11ERU5  C2025 01 18.52921210 37 18.602+46 33 10.01   ~24DV 22.06GVNEOCPV00
     C11ERU5  C2025 01 18.53482110 37 18.228+46 33 13.25   ~24DV 23.07GVNEOCPV00
     C11ERU5* C2025 02 04.42426110 12 59.227+48 42 16.34   ~24B2 21.83GVNEOCPV00
     C11ERU5  C2025 02 04.42988710 12 58.626+48 42 17.86   ~24B2 21.56GVNEOCPV00
     C11ERU5  C2025 02 04.43550010 12 57.996+48 42 19.26   ~24B2 21.79GVNEOCPV00
     C11ERU5  C2025 02 04.44111210 12 57.380+48 42 20.56   ~24B2 21.74GVNEOCPV00
     C11ERU5 KC2025 02 05.47754510 11 05.860+48 46 24.10   ~25CH 21.86GVNEOCPV06
     C11ERU5 KC2025 02 05.48605310 11 04.909+48 46 25.82   ~25CH 21.90GVNEOCPV06
     C11ERU5 KC2025 02 05.49533410 11 03.887+48 46 27.77   ~25CH 21.89GVNEOCPV06
     C11ERU5 KC2025 02 05.49997910 11 03.368+48 46 28.60   ~25CH 21.67GVNEOCPV06

Station data:
(V00) Kitt Peak-Bok  (N31.963125 W111.600190)  US/Arizona.  Observers T. A.
   Pruyne, B. M. Africano, E. J. Christensen, G. A. Farneth, D. C. Fuls, A.
   R. Gibbs, A. D. Grauer, H. Gröller, J. A. Johnson, R. A. Kowalski, S. M.
   Larson, G. J. Leonard, D. Rankin, R. L. Seaman, F. C. Shelly, K. W.
   Wierzchoś. 2.25-m reflector + 4x4K mosaic CCD.
(V06) Catalina Sky Survey-Kuiper  (N32.416871 W110.732550)  US/Arizona.
   Observers T. A. Pruyne, B. M. Africano, E. J. Christensen, G. A. Farneth,
   D. C. Fuls, A. R. Gibbs, A. D. Grauer, H. Gröller, J. A. Johnson, R. A.
   Kowalski, S. M. Larson, G. J. Leonard, D. Rankin, R. L. Seaman, F. C.
   Shelly, K. W. Wierzchoś. 1.55-m reflector + CCD.

Orbital elements:  C11ERU5
   Perihelion 2023 Oct 14.22614 +/- 3.37 TT =  5:25:38 (JD 2460231.72614)
Epoch 2025 Feb  5.0 TT = JDT 2460711.5   Earth MOID: 0.8110      AutoNEOCP
M 177.95192755 +/- 1.2              (J2000 ecliptic)
n   0.37090792 +/- 0.000141         Peri.  292.78632 +/- 0.9
a   1.91848603 +/- 0.000486         Node    23.53043 +/- 0.08
e   0.0863384 +/- 0.000666          Incl.   20.55854 +/- 0.021
P   2.657/970.573d         H 19.35  G  0.15   U  6.9
q 1.75284690 +/- 0.000987    Q 2.08412515 +/- 0.00171
From 12 observations 2025 Jan. 18-Feb. 5; mean residual 0".10
Residuals in arcseconds: 
250118 V00  .30+  .06-    250204 V00  .10-  .14-    250205 V06  .03+  .06-    
250118 V00  .16-  .18+    250204 V00  .10+  .02+    250205 V06  .04-  .03-    
250118 V00  .01+  .02-    250204 V00  .01-  .08+    250205 V06  .03+  .09+    
250118 V00  .15-  .10-    250204 V00  .01+  .05+    250205 V06  .02-  .00     

Ephemerides (geocentric):
Date (UTC) HH   RA             Dec           delta  r     elong  mag " sig PA
---- --------  ------------   ------------  ------ ------ -----  --- --------
2025 02 05 15  10 10 50.321   +48 46 55.50  1.1968 2.0841 145.2 22.2 .183  11
2025 02 05 16  10 10 45.802   +48 47 04.45  1.1968 2.0841 145.2 22.2 .196  11
2025 02 05 17  10 10 41.281   +48 47 13.34  1.1968 2.0841 145.2 22.2 .208  11
2025 02 05 18  10 10 36.758   +48 47 22.18  1.1967 2.0841 145.2 22.2 .221  11
2025 02 05 19  10 10 32.232   +48 47 30.97  1.1967 2.0841 145.2 22.2 .234  11
2025 02 05 20  10 10 27.704   +48 47 39.70  1.1967 2.0841 145.2 22.2 .247  11
2025 02 05 21  10 10 23.174   +48 47 48.38  1.1967 2.0841 145.2 22.2 .260  11
2025 02 05 22  10 10 18.641   +48 47 57.01  1.1967 2.0841 145.2 22.2 .272  11
2025 02 05 23  10 10 14.107   +48 48 05.58  1.1967 2.0841 145.2 22.2 .286  11
2025 02 06 00  10 10 09.570   +48 48 14.10  1.1967 2.0841 145.2 22.2 .299  11
2025 02 06 01  10 10 05.030   +48 48 22.56  1.1967 2.0841 145.2 22.2 .312  11
2025 02 06 02  10 10 00.489   +48 48 30.97  1.1967 2.0841 145.2 22.2 .325  11
2025 02 06 03  10 09 55.945   +48 48 39.32  1.1967 2.0841 145.2 22.2 .338  11
2025 02 06 04  10 09 51.399   +48 48 47.62  1.1966 2.0841 145.2 22.2 .351  11
2025 02 06 05  10 09 46.851   +48 48 55.87  1.1966 2.0841 145.2 22.2 .365  11
2025 02 06 06  10 09 42.301   +48 49 04.06  1.1966 2.0841 145.2 22.2 .378  11
2025 02 06 07  10 09 37.749   +48 49 12.20  1.1966 2.0841 145.2 22.2 .392  11
2025 02 06 08  10 09 33.194   +48 49 20.28  1.1966 2.0841 145.2 22.2 .405  11
2025 02 06 09  10 09 28.638   +48 49 28.31  1.1966 2.0841 145.2 22.2 .419  11
2025 02 06 10  10 09 24.079   +48 49 36.28  1.1966 2.0841 145.2 22.2 .432  11
2025 02 06 11  10 09 19.518   +48 49 44.20  1.1966 2.0841 145.2 22.2 .446  11
2025 02 06 12  10 09 14.955   +48 49 52.07  1.1966 2.0841 145.2 22.2 .460  11
2025 02 06 13  10 09 10.390   +48 49 59.88  1.1966 2.0841 145.2 22.2 .473  11
2025 02 06 14  10 09 05.823   +48 50 07.63  1.1966 2.0841 145.2 22.2 .487  11
2025 02 06 15  10 09 01.254   +48 50 15.33  1.1966 2.0841 145.2 22.2 .501  11
2025 02 06 16  10 08 56.683   +48 50 22.98  1.1966 2.0841 145.2 22.2 .515  10
2025 02 06 17  10 08 52.110   +48 50 30.57  1.1966 2.0841 145.2 22.2 .529  10
2025 02 06 18  10 08 47.535   +48 50 38.10  1.1966 2.0841 145.2 22.2 .543  10
2025 02 06 19  10 08 42.958   +48 50 45.58  1.1966 2.0841 145.2 22.2 .557  10
2025 02 06 20  10 08 38.379   +48 50 53.01  1.1966 2.0841 145.2 22.2 .571  10
2025 02 06 21  10 08 33.798   +48 51 00.38  1.1966 2.0841 145.2 22.2 .586  10
2025 02 06 22  10 08 29.215   +48 51 07.70  1.1966 2.0841 145.2 22.2 .600  10
2025 02 06 23  10 08 24.630   +48 51 14.96  1.1966 2.0841 145.2 22.2 .614  10
2025 02 07 00  10 08 20.043   +48 51 22.16  1.1966 2.0841 145.2 22.2 .629  10
2025 02 07 01  10 08 15.454   +48 51 29.31  1.1966 2.0841 145.2 22.2 .643  10
2025 02 07 02  10 08 10.864   +48 51 36.41  1.1966 2.0841 145.2 22.2 .657  10
2025 02 07 03  10 08 06.271   +48 51 43.45  1.1966 2.0841 145.2 22.2 .672  10
2025 02 07 04  10 08 01.677   +48 51 50.43  1.1966 2.0841 145.2 22.2 .687  10
2025 02 07 05  10 07 57.081   +48 51 57.36  1.1966 2.0841 145.2 22.2 .701  10
2025 02 07 06  10 07 52.482   +48 52 04.24  1.1966 2.0841 145.2 22.2 .716  10
2025 02 07 07  10 07 47.883   +48 52 11.06  1.1966 2.0841 145.2 22.2 .731  10
2025 02 07 08  10 07 43.281   +48 52 17.82  1.1966 2.0841 145.2 22.2 .745  10
2025 02 07 09  10 07 38.677   +48 52 24.53  1.1966 2.0841 145.2 22.2 .760  10
2025 02 07 10  10 07 34.072   +48 52 31.18  1.1966 2.0841 145.2 22.2 .775  10
2025 02 07 11  10 07 29.465   +48 52 37.77  1.1966 2.0841 145.2 22.2 .790  10
2025 02 07 12  10 07 24.856   +48 52 44.32  1.1966 2.0841 145.2 22.2 .805  10
2025 02 07 13  10 07 20.245   +48 52 50.80  1.1966 2.0841 145.2 22.2 .820   9
2025 02 07 14  10 07 15.633   +48 52 57.23  1.1966 2.0841 145.2 22.2 .835   9